Total_Precipitation_Accumulation
0.01 0.02 0.03 0.04 0.04 0.06 0.09 0.18 0.24 0.26 0.31 0.35 0.44 0.52 0.83 1.08 1.18 1.31 1.48 1.72 1.89 2.06 2.12 2.28 2.58 2.81 2.96 3.12 3.36 3.67 4.09 4.45 4.56 4.38 4.30 4.23 3.94 3.62 3.25 2.99 2.94 3.06 2.96 3.05
0.03 0.04 0.03 0.04 0.04 0.08 0.11 0.20 0.27 0.31 0.35 0.34 0.49 0.61 0.86 1.31 1.46 1.41 1.47 1.49 1.54 1.98 2.18 2.35 2.61 2.76 2.76 2.94 3.23 3.65 4.11 4.43 4.34 4.45 4.67 4.61 4.37 3.68 3.31 3.14 3.08 3.01 2.93 2.92
0.04 0.04 0.03 0.04 0.06 0.09 0.13 0.17 0.24 0.30 0.41 0.39 0.50 0.91 1.11 1.41 1.55 1.43 1.39 1.40 1.36 1.55 1.85 1.97 2.13 2.33 2.56 2.96 3.37 3.66 4.00 4.17 4.19 4.40 4.54 4.26 4.05 3.55 3.40 3.39 3.23 3.07 3.05 3.03
0.04 0.04 0.03 0.06 0.08 0.09 0.13 0.13 0.16 0.25 0.41 0.57 0.63 1.24 1.54 1.74 1.62 1.35 1.38 1.43 1.53 1.64 1.72 1.84 1.88 2.17 2.52 2.92 3.49 3.90 3.95 4.03 3.91 4.02 4.14 3.97 3.63 3.37 3.27 3.27 3.04 2.93 2.86 2.85
0.06 0.04 0.04 0.05 0.07 0.08 0.11 0.10 0.13 0.22 0.35 0.57 0.71 1.10 1.57 1.67 1.56 1.27 1.19 1.38 1.61 1.59 1.64 1.88 1.81 1.99 2.24 2.65 3.05 3.46 3.81 3.88 3.69 3.63 3.67 3.80 3.64 3.36 3.14 3.05 2.95 2.89 2.86 2.69
0.09 0.08 0.07 0.06 0.07 0.08 0.09 0.11 0.19 0.31 0.52 0.90 0.71 0.83 1.25 1.51 1.41 1.16 1.17 1.30 1.48 1.65 1.63 1.79 2.04 2.08 2.19 2.46 2.80 3.07 3.32 3.31 3.24 3.19 3.22 3.33 3.41 3.38 3.14 2.93 2.95 2.91 2.78 2.62
0.17 0.18 0.13 0.10 0.10 0.08 0.09 0.19 0.56 0.92 1.23 1.11 0.73 0.82 1.18 1.14 1.00 0.91 0.97 1.23 1.50 1.77 1.77 1.80 1.97 2.06 2.15 2.26 2.42 2.56 2.67 2.72 2.69 2.72 2.69 2.68 2.82 2.90 2.78 2.70 2.77 2.77 2.66 2.54
0.26 0.25 0.18 0.15 0.13 0.12 0.12 0.22 0.61 0.83 1.00 0.95 0.88 1.10 1.17 0.94 0.81 0.82 0.90 1.08 1.37 1.54 1.57 1.66 1.74 1.66 1.67 1.74 1.87 2.03 2.14 2.16 2.12 2.19 2.28 2.29 2.49 2.50 2.51 2.64 2.56 2.58 2.51 2.46
0.14 0.16 0.15 0.15 0.16 0.16 0.21 0.26 0.29 0.48 0.60 0.97 1.18 1.29 1.19 0.87 1.00 0.99 1.07 1.12 1.17 1.21 1.24 1.24 1.26 1.33 1.46 1.51 1.54 1.63 1.81 1.83 1.75 1.81 1.97 2.03 2.10 2.22 2.33 2.41 2.33 2.22 2.25 2.13
0.08 0.12 0.14 0.12 0.13 0.16 0.22 0.34 0.47 0.70 0.95 1.12 1.24 1.51 1.69 1.49 1.40 1.27 1.38 1.59 1.35 1.08 1.09 1.11 1.08 1.14 1.19 1.24 1.34 1.50 1.63 1.78 1.77 1.72 1.76 1.71 1.81 1.93 2.12 2.18 2.09 2.10 2.18 2.12
0.08 0.11 0.14 0.16 0.16 0.21 0.33 0.42 0.52 0.67 0.78 1.05 1.38 1.56 1.36 1.51 1.46 1.39 1.37 1.41 1.29 0.96 0.85 0.93 0.91 0.95 1.00 1.06 1.18 1.34 1.62 1.78 1.71 1.55 1.57 1.64 1.61 1.72 1.85 1.92 1.86 1.96 2.06 2.18
0.11 0.12 0.16 0.20 0.20 0.20 0.28 0.42 0.53 0.70 0.79 0.88 1.12 1.37 1.00 1.14 1.11 1.08 1.14 1.00 0.91 0.84 0.69 0.80 0.85 0.82 0.86 0.90 0.99 1.15 1.35 1.52 1.53 1.49 1.51 1.62 1.70 1.70 1.66 1.66 1.70 1.76 1.79 1.86
0.13 0.17 0.28 0.48 0.46 0.30 0.26 0.29 0.36 0.45 0.59 0.69 0.99 1.29 0.92 0.90 1.00 0.97 0.94 0.94 0.77 0.83 0.77 0.75 0.84 0.84 0.78 0.78 0.91 1.09 1.14 1.33 1.51 1.53 1.51 1.60 1.59 1.56 1.61 1.75 1.81 1.79 1.80 1.83
0.14 0.16 0.24 0.50 0.57 0.45 0.35 0.34 0.35 0.38 0.52 0.56 0.66 0.99 1.00 0.99 0.98 1.02 0.94 0.82 0.70 0.73 0.81 0.77 0.76 0.75 0.65 0.64 0.75 0.95 1.03 1.17 1.33 1.48 1.57 1.69 1.70 1.71 1.80 1.90 1.97 1.92 1.86 1.89
0.14 0.14 0.17 0.23 0.32 0.34 0.31 0.31 0.33 0.35 0.40 0.51 0.59 0.76 0.92 0.93 0.94 1.04 0.94 0.82 0.79 0.69 0.70 0.73 0.69 0.60 0.57 0.59 0.66 0.83 0.96 1.08 1.21 1.46 1.64 1.76 1.83 1.83 1.85 1.84 1.92 1.93 1.82 1.77
0.18 0.20 0.22 0.29 0.33 0.36 0.35 0.34 0.30 0.29 0.27 0.32 0.50 0.73 0.74 0.73 0.78 0.90 0.90 0.95 0.94 0.83 0.68 0.64 0.65 0.64 0.65 0.57 0.58 0.64 0.80 0.97 1.12 1.32 1.48 1.57 1.69 1.81 1.79 1.75 1.79 1.79 1.82 1.84
0.25 0.28 0.34 0.41 0.46 0.53 0.56 0.44 0.42 0.40 0.36 0.40 0.63 0.77 0.63 0.65 0.69 0.71 0.72 0.78 0.84 0.82 0.89 0.88 0.81 0.82 0.71 0.59 0.61 0.64 0.70 0.87 1.08 1.23 1.32 1.42 1.55 1.64 1.68 1.63 1.70 1.80 1.83 1.80
0.30 0.37 0.41 0.44 0.61 0.86 0.65 0.41 0.35 0.35 0.39 0.38 0.49 0.56 0.54 0.57 0.57 0.62 0.68 0.66 0.65 0.58 0.64 0.80 0.87 0.90 0.86 0.76 0.78 0.80 0.83 0.95 1.11 1.27 1.36 1.43 1.55 1.58 1.60 1.61 1.58 1.64 1.65 1.65
0.28 0.42 0.50 0.55 0.68 0.71 0.60 0.49 0.49 0.50 0.52 0.38 0.43 0.50 0.53 0.60 0.63 0.71 0.60 0.52 0.62 0.57 0.64 0.71 0.78 0.88 1.02 1.05 1.01 1.03 1.10 1.16 1.17 1.24 1.36 1.48 1.60 1.65 1.65 1.67 1.64 1.66 1.66 1.62
0.31 0.40 0.54 0.57 0.82 0.90 0.72 0.56 0.59 0.67 0.94 0.63 0.56 0.61 0.64 0.65 0.90 0.97 0.65 0.57 0.75 0.65 0.63 0.70 0.74 0.79 0.97 1.07 1.05 1.06 1.10 1.18 1.19 1.27 1.39 1.52 1.62 1.74 1.71 1.78 1.81 1.78 1.69 1.63
0.60 0.63 0.63 0.63 0.84 0.96 0.68 0.53 0.64 1.13 1.28 0.79 0.69 0.70 0.76 0.80 0.83 0.77 0.64 0.67 0.73 0.65 0.62 0.60 0.68 0.89 1.00 1.02 1.09 1.16 1.16 1.23 1.28 1.41 1.50 1.62 1.71 1.76 1.74 1.82 1.87 1.84 1.79 1.79
0.85 0.84 0.79 0.84 1.09 1.19 0.71 0.63 0.92 1.07 0.83 0.77 0.75 0.69 0.73 0.74 0.68 0.59 0.58 0.60 0.62 0.66 0.66 0.75 0.88 1.00 1.04 1.08 1.24 1.38 1.43 1.37 1.47 1.57 1.56 1.65 1.78 1.64 1.64 1.86 1.93 1.93 1.95 1.93
0.93 0.96 0.99 1.06 1.16 1.00 0.89 0.94 1.01 0.86 0.86 0.79 0.71 0.69 0.65 0.69 0.68 0.62 0.60 0.55 0.60 0.73 0.73 0.81 0.95 0.99 1.03 1.10 1.26 1.51 1.55 1.48 1.50 1.60 1.64 1.66 1.73 1.86 1.93 1.98 2.02 1.98 1.93 1.92
1.02 0.90 1.06 1.19 1.17 1.06 1.04 1.03 1.01 0.93 0.91 0.83 0.73 0.74 0.69 0.74 0.79 0.73 0.67 0.68 0.63 0.68 0.73 0.79 0.93 0.97 1.09 1.20 1.35 1.62 1.68 1.64 1.66 1.72 1.81 1.81 1.79 1.85 2.02 2.18 2.18 2.09 1.94 1.96
1.12 1.09 1.25 1.44 1.38 1.20 1.06 0.91 0.86 0.81 0.77 0.74 0.76 0.77 0.77 0.82 0.86 0.81 0.84 0.86 0.78 0.74 0.75 0.85 1.01 1.15 1.20 1.27 1.35 1.52 1.69 1.83 1.90 1.93 1.92 1.92 1.96 2.00 2.07 2.07 2.03 2.01 1.93 1.86
1.07 1.22 1.49 1.64 1.35 1.19 1.12 0.92 0.90 0.80 0.74 0.74 0.73 0.72 0.81 0.84 0.85 0.82 0.83 0.88 0.84 0.88 0.98 1.00 1.04 1.18 1.26 1.32 1.41 1.52 1.75 2.02 2.23 2.20 2.10 2.09 2.07 2.09 2.06 2.06 1.89 1.74 1.66 1.59